This is the latest recevied weather packets stored in our database for station/object AI5BL. If no packets are shown the sender has not sent any weather packets the latest 10 day(s).
| Time | Temp. | Humidity | Pressure | Rain* | Wind** | Luminosity | Snow |
|---|---|---|---|---|---|---|---|
| 1788033681 | 33.33° C | 61% | 1018.7 hPa | 0 mm | - | 90 W/m² | - |
| 1788033380 | 33.89° C | 52% | 1018.7 hPa | 0 mm | - | 102 W/m² | - |
| 1788033076 | 34.44° C | 51% | 1018.7 hPa | 0 mm | - | 156 W/m² | - |
| 1788032775 | 33.89° C | 56% | 1018.8 hPa | 0 mm | - | 230 W/m² | - |
| 1788032470 | 33.89° C | 49% | 1018.7 hPa | 0 mm | - | 351 W/m² | - |
| 1788032166 | 33.89° C | 49% | 1018.9 hPa | 0 mm | - | 611 W/m² | - |
| 1788031863 | 33.89° C | 53% | 1019 hPa | 0 mm | - | 721 W/m² | - |
| 1788031562 | 33.89° C | 52% | 1019 hPa | 0 mm | - | 130 W/m² | - |
| 1788031262 | 33.89° C | 52% | 1019.2 hPa | 0 mm | - | 725 W/m² | - |
| 1788030961 | 33.33° C | 51% | 1019.2 hPa | 0 mm | - | 777 W/m² | - |
| 1788030661 | 31.67° C | 64% | 1019.5 hPa | 0 mm | - | 767 W/m² | - |
| 1788030355 | 31.11° C | 59% | 1019.6 hPa | 0 mm | - | 394 W/m² | - |
| 1788030052 | 32.22° C | 63% | 1019.6 hPa | 0 mm | - | 108 W/m² | - |
| 1788029751 | 32.78° C | 56% | 1019.5 hPa | 0 mm | - | 121 W/m² | - |
| 1788029447 | 32.78° C | 55% | 1019.7 hPa | 0 mm | - | 569 W/m² | - |
| 1788029146 | 32.78° C | 53% | 1019.7 hPa | 0 mm | - | 186 W/m² | - |
| 1788028846 | 33.33° C | 55% | 1019.9 hPa | 0 mm | - | 171 W/m² | - |
| 1788028545 | 33.89° C | 55% | 1019.7 hPa | 0 mm | - | 227 W/m² | - |
| 1788028241 | 32.22° C | 56% | 1019.7 hPa | 0 mm | - | 782 W/m² | - |
| 1788027937 | 31.11° C | 67% | 1019.7 hPa | 0 mm | - | 230 W/m² | - |
| 1788027632 | 32.22° C | 66% | 1019.8 hPa | 0 mm | - | 195 W/m² | - |
| 1788027332 | 30.56° C | 63% | 1019.9 hPa | 0 mm | - | 246 W/m² | - |
| 1788027032 | 32.22° C | 60% | 1019.9 hPa | 0 mm | - | 188 W/m² | - |
| 1788026731 | 31.67° C | 59% | 1019.9 hPa | 0 mm | - | 822 W/m² | - |
| 1788026428 | 31.67° C | 56% | 1019.9 hPa | 0 mm | - | 165 W/m² | - |
* Rain latest hour (hover to see other rain measurements)
** Current wind speed in m/s (hover to see current wind gust speed)